Simultaneous Nadir Overpasses (SNOs) Predictions

Prediction of SNOs between GOES-17 and METOP-B Satellite Orbit:

Table of predicted SNOs for the next 14.0 days since TLE Epoch: 6/5/2020
Index Date Time (GOES-17) GOES-17 Lat,Lon METOP-B Lat,Lon Distance(km) Time Diff (sec)
1 06/06/2020 06:51:26 -0.02,-137.17 -0.64,-139.82 302.18 80
2 06/07/2020 06:28:07 -0.02,-137.16 0.49,-134.83 266.06 80
3 06/08/2020 18:46:58 0.02,-137.16 0.51,-139.39 253.82 80
4 06/09/2020 18:28:58 0.01,-137.15 -0.62,-134.40 314.25 80
5 06/11/2020 06:47:58 -0.01,-137.12 -0.46,-138.98 212.72 80
6 06/12/2020 06:24:38 -0.01,-137.11 0.67,-133.99 355.21 80
7 06/13/2020 18:43:30 0.01,-137.10 0.33,-138.55 165.20 80
8 06/14/2020 18:25:30 0.01,-137.09 -0.80,-133.56 402.52 80
9 06/16/2020 06:44:29 -0.01,-137.06 -0.26,-138.15 125.03 80
10 06/17/2020 06:21:10 -0.01,-137.04 0.86,-133.16 442.21 80
11 06/18/2020 18:40:01 0.00,-137.02 0.14,-137.72 79.60 80




NCC Satellite Simultaneous Nadir Overpasses (SNOs) Prediction Service
